[[{"header":{"parameterUnit":"m.s-1","parameterCategory":1,"la1":30.2991,"la2":30.254,"lo1":-89.0895,"lo2":-89.0444,"dy":0.0017,"dx":0.0017,"nx":28,"ny":28,"refTime":"2023-09-03T03:00:00:Z","depth":0,"parameterNumber":2,"parameterNumberName":"U-component_of_WINDS"},"data":[0,0,0,0,0,0,0,0,0,0,0,0,0,0,0,0,0,0,0,0,0,0,0,0,0,0,0,0,0,0,0,0,0,0,0,0,0,0,0,0,0,0,0,0,0,0,0,0,0,0,0,0,0,0,0,0,0,0,-5.1452,-5.1452,0,-5.1468,-5.1468,-5.1468,-5.1412,-5.141,-5.1408,-5.1407,-5.1422,-5.1423,-5.1425,0,0,0,0,0,0,0,0,0,0,0,0,0,-5.1371,-5.1373,-5.1452,-5.1452,-5.1453,-5.1468,-5.1468,-5.1468,-5.1412,-5.141,-5.1408,-5.1406,-5.1421,-5.1423,-5.1426,0,0,0,0,0,0,0,0,0,0,0,0,0,-5.1398,-5.1373,-5.1452,-5.1426,-5.1424,-5.1468,-5.1468,-5.1468,-5.1412,-5.141,-5.1407,-5.1405,-5.142,-5.1423,-5.1426,-5.1495,0,0,-5.1435,-5.1436,0,0,0,0,0,0,0,0,-5.1397,-5.1401,-5.143,-5.1428,-5.1426,-5.1435,-5.1445,-5.1477,-5.1413,-5.1417,-5.1407,-5.1404,-5.1428,-5.143,-5.1439,-5.1496,-5.1496,-5.1435,-5.1437,-5.1438,-5.1439,0,0,0,0,0,0,0,-5.1395,-5.14,-5.1458,-5.143,-5.1428,-5.1413,-5.1414,-5.1451,-5.1436,-5.1416,-5.1412,-5.1415,-5.1426,-5.1436,-5.1439,-5.1496,-5.1435,-5.1438,-5.144,-5.1441,-5.1609,-5.1611,0,0,0,0,0,0,-5.1397,-5.1399,-5.1458,-5.1459,-5.1405,-5.1417,-5.1418,-5.1435,-5.1436,-5.1434,-5.1417,-5.1412,-5.1432,-5.1435,-5.1439,-5.1518,-5.1438,-5.1441,-5.1443,-5.1606,-5.1609,-5.1612,0,0,0,0,0,0,-5.1395,-5.1403,-5.1457,-5.1428,-5.1434,-5.1421,-5.144,-5.1436,-5.1446,-5.1437,-5.1433,-5.143,-5.143,-5.1435,-5.1481,-5.1517,-5.1442,-5.1445,-5.1603,-5.1607,-5.1611,-5.1677,0,0,0,0,0,0,-5.1393,-5.1402,-5.1429,-5.1429,-5.1436,-5.15,-5.1443,-5.1439,-5.1451,-5.1445,-5.1447,-5.1445,-5.1429,-5.1477,-5.1484,-5.152,-5.1447,-5.1599,-5.1605,-5.1609,-5.1672,-5.1683,-5.1693,0,0,0,0,0,-5.1391,-5.1447,-5.1431,-5.1438,-5.1469,-5.1502,-5.1506,-5.1486,-5.1455,-5.148,-5.1474,-5.1445,-5.1513,-5.1482,-5.149,-5.1527,-5.1597,-5.1603,-5.1609,-5.1667,-5.1681,-5.1693,0,0,0,0,0,0,-5.1451,-5.1447,-5.1428,-5.1487,-5.1495,-5.1492,-5.1524,-5.1501,-5.1518,-5.1512,-5.1486,-5.1487,-5.1537,-5.1537,-5.1503,-5.1593,-5.1549,-5.1557,-5.1591,-5.1604,-5.1615,-5.1612,-5.145,0,0,0,0,0,-5.1472,-5.15,-5.1494,-5.1546,-5.1552,-5.1538,-5.1551,-5.1535,-5.1543,-5.1546,-5.1543,-5.1551,-5.1574,-5.1589,-5.161,-5.1672,-5.1671,-5.1702,-5.1713,-5.1721,-5.1728,-5.1758,-5.1771,-5.1632,-5.1632,-5.1632,0,0,-5.1514,-5.1515,-5.1534,-5.1559,-5.1563,-5.1592,-5.1541,-5.1574,-5.1594,-5.1551,-5.1593,-5.1592,-5.1599,-5.1653,-5.1677,-5.1655,-5.1766,-5.1729,-5.1736,-5.1737,-5.1766,-5.1779,-5.1791,-5.1636,-5.1635,-5.1635,0,0,-5.1604,-5.1609,-5.1652,-5.1657,-5.1665,-5.1656,-5.1666,-5.1667,-5.1664,-5.1707,-5.1675,-5.1699,-5.1739,-5.1745,-5.1753,-5.1846,-5.1819,-5.1854,-5.1908,-5.1938,-5.1949,-5.1959,-5.199,-5.2001,-5.1861,-5.1861,-5.1861,0,-5.1655,-5.1697,-5.1677,-5.1711,-5.1722,-5.1685,-5.1727,-5.1734,-5.1748,-5.1756,-5.1732,-5.1781,-5.1783,-5.1837,-5.1859,-5.1868,-5.1878,-5.1852,-5.195,-5.1959,-5.1968,-5.1997,-5.2008,-5.1865,-5.1864,-5.1864,-5.1864,0,-5.1758,-5.1788,-5.1822,-5.1836,-5.1851,-5.189,-5.1874,-5.1892,-5.1875,-5.1868,-5.1911,-5.1913,-5.1932,-5.1945,-5.1929,-5.1996,-5.1982,-5.1954,-5.1909,-5.1985,-5.2012,-5.2023,-5.187,-5.1869,-5.1868,-5.1867,0,0,-5.1886,-5.1889,-5.1901,-5.1906,-5.1912,-5.1934,-5.1971,-5.1991,-5.2005,-5.2017,-5.2045,-5.2081,-5.2055,-5.2064,-5.2049,-5.2076,-5.2146,-5.2044,-5.2044,-5.2061,-5.2218,-5.2237,-5.225,-5.213,-5.2132,-5.2133,-5.2217,0,-5.1973,-5.2035,-5.2017,-5.2079,-5.2106,-5.2071,-5.2102,-5.2109,-5.2104,-5.2124,-5.2118,-5.2143,-5.2108,-5.2113,-5.2139,-5.2132,-5.2177,-5.2127,-5.2154,-5.2155,-5.2151,-5.2265,-5.2285,-5.2363,-5.2227,-5.2229,-5.223,0,-5.2082,-5.2097,-5.2162,-5.2162,-5.2173,-5.2201,-5.2217,-5.2238,-5.2245,-5.2239,-5.2249,-5.2228,-5.2263,-5.222,-5.2266,-5.2232,-5.2243,-5.2242,-5.2244,-5.2244,-5.2196,-5.2265,-5.2388,-5.2399,-5.2247,-5.2246,-5.2245,0,-5.2166,-5.2203,-5.2245,-5.2252,-5.2254,-5.2274,-5.2276,-5.228,-5.2293,-5.2307,-5.2314,-5.2332,-5.2341,-5.2356,-5.2339,-5.231,-5.2388,-5.2344,-5.2382,-5.2382,-5.2398,-5.2396,-5.2522,-5.2409,-5.2409,-5.2409,-5.2409,0,-5.2263,-5.2303,-5.2283,-5.2309,-5.2353,-5.2332,-5.2376,-5.2373,-5.2377,-5.2402,-5.2374,-5.2397,-5.2375,-5.2397,-5.2385,-5.2424,-5.2429,-5.2424,-5.2419,-5.2425,-5.2425,-5.2429,-5.2422,-5.2412,-5.2411,-5.2411,-5.241,0,-5.2363,-5.2351,-5.2395,-5.2393,-5.2394,-5.2426,-5.2424,-5.2448,-5.244,-5.2472,-5.2478,-5.2466,-5.2489,-5.2475,-5.25,-5.2491,-5.2542,-5.2531,-5.2539,-5.2535,-5.2573,-5.2569,-5.2703,-5.2719,-5.2599,-5.2601,-5.2602,0,-5.2424,-5.2454,-5.2456,-5.247,-5.2474,-5.2498,-5.251,-5.2491,-5.2505,-5.2514,-5.2536,-5.2558,-5.2573,-5.2612,-5.2605,-5.2623,-5.2612,-5.2658,-5.2614,-5.2618,-5.2609,-5.2606,-5.2608,-5.2666,-5.2667,-5.2668,-5.2669,0,-5.2534,-5.2527,-5.2546,-5.2563,-5.2578,-5.2591,-5.2601,-5.2614,-5.2595,-5.2612,-5.2635,-5.2648,-5.2672,-5.2693,-5.2708,-5.2709,-5.2685,-5.2683,-5.2692,-5.2697,-5.2699,-5.2696,-5.256,-5.268,-5.2679,-5.2678,-5.2677,-5.2677,-5.2615,-5.2639,-5.2644,-5.2665,-5.2671,-5.2681,-5.2702,-5.2698,-5.2717,-5.2735,-5.2723,-5.2751,-5.2755,-5.2773,-5.2777,-5.2798,-5.2779,-5.2793,-5.2796,-5.28,-5.2804,-5.2698,-5.2801,-5.2801,-5.2801,-5.28,-5.28,0,-5.2721,-5.2722,-5.2743,-5.2757,-5.2774,-5.2752,-5.2761,-5.2777,-5.2801,-5.2808,-5.2824,-5.285,-5.287,-5.2865,-5.2883,-5.29,-5.289,-5.2905,-5.2902,-5.2902,-5.2821,-5.281,-5.2913,-5.2913,-5.2913,-5.2913,-5.2913,-5.2913,-5.2778,-5.2817,-5.281,-5.2851,-5.2852,-5.2879,-5.2886,-5.2894,-5.2899,-5.293,-5.2946,-5.2943,-5.2945,-5.2962,-5.2979,-5.2977,-5.2984,-5.3003,-5.2997,-5.292,-5.2908,-5.2898,-5.2887,-5.3005,-5.3005,-5.3076,-5.3077,-5.3078]},{"header":{"parameterUnit":"m.s-1","parameterCategory":1,"la1":30.2991,"la2":30.254,"lo1":-89.0895,"lo2":-89.0444,"dy":0.0017,"dx":0.0017,"nx":28,"ny":28,"refTime":"2023-09-03T03:00:00:Z","depth":0,"parameterNumber":3,"parameterNumberName":"V-component_of_WINDS"},"data":[0,0,0,0,0,0,0,0,0,0,0,0,0,0,0,0,0,0,0,0,0,0,0,0,0,0,0,0,0,0,0,0,0,0,0,0,0,0,0,0,0,0,0,0,0,0,0,0,0,0,0,0,0,0,0,0,0,0,4.118,4.1181,0,4.129,4.1291,4.1292,4.1298,4.1296,4.1295,4.1294,4.1402,4.1406,4.141,0,0,0,0,0,0,0,0,0,0,0,0,0,4.0972,4.0976,4.118,4.1182,4.1183,4.129,4.1291,4.1293,4.1298,4.1296,4.1295,4.1293,4.1401,4.1406,4.141,0,0,0,0,0,0,0,0,0,0,0,0,0,4.107,4.0977,4.118,4.1198,4.1201,4.1289,4.1291,4.1293,4.1298,4.1296,4.1294,4.1293,4.1399,4.1405,4.1411,4.1487,0,0,4.143,4.1432,0,0,0,0,0,0,0,0,4.1065,4.1078,4.1194,4.1197,4.1201,4.1278,4.1257,4.1358,4.1299,4.1261,4.1294,4.1292,4.1362,4.1371,4.1396,4.1492,4.1496,4.143,4.1434,4.1437,4.1438,0,0,0,0,0,0,0,4.1058,4.1073,4.1223,4.1196,4.12,4.12,4.1212,4.1276,4.1321,4.1264,4.1265,4.1278,4.1363,4.139,4.1398,4.1498,4.143,4.1435,4.1439,4.1442,4.1662,4.1664,0,0,0,0,0,0,4.1048,4.1067,4.122,4.1227,4.1127,4.1206,4.1219,4.1255,4.132,4.1328,4.128,4.1278,4.138,4.1391,4.1402,4.1496,4.1436,4.1442,4.1446,4.166,4.1663,4.1665,0,0,0,0,0,0,4.1043,4.1061,4.1215,4.1147,4.1167,4.1211,4.1252,4.1258,4.1285,4.1332,4.1339,4.1299,4.1379,4.1394,4.1466,4.1499,4.1445,4.145,4.1658,4.1661,4.1664,4.1683,0,0,0,0,0,0,4.1037,4.106,4.109,4.1148,4.1171,4.1279,4.1254,4.1262,4.1296,4.1295,4.1352,4.1359,4.1379,4.1457,4.1472,4.1507,4.1455,4.1655,4.1659,4.1663,4.168,4.1687,4.1692,0,0,0,0,0,4.103,4.109,4.1091,4.111,4.1209,4.1281,4.1293,4.1316,4.1298,4.1329,4.1359,4.1358,4.1493,4.1464,4.1482,4.1519,4.1653,4.1658,4.1663,4.1677,4.1685,4.1692,0,0,0,0,0,0,4.1032,4.1098,4.11,4.1181,4.1225,4.1281,4.132,4.1324,4.1373,4.137,4.1395,4.1408,4.148,4.1506,4.1473,4.1596,4.1571,4.158,4.1576,4.1584,4.159,4.1583,4.146,0,0,0,0,0,4.1043,4.1097,4.115,4.1216,4.1238,4.1275,4.1307,4.1321,4.1368,4.1386,4.1422,4.1466,4.1519,4.1553,4.1604,4.1683,4.1696,4.1717,4.1724,4.1729,4.1736,4.1781,4.1791,4.1682,4.1681,4.1681,0,0,4.1064,4.1106,4.1138,4.1217,4.1254,4.1308,4.1291,4.1349,4.1389,4.1394,4.1466,4.1493,4.1544,4.1621,4.1656,4.1645,4.1769,4.1735,4.1739,4.1743,4.1787,4.1797,4.1806,4.1685,4.1684,4.1684,0,0,4.113,4.1168,4.1227,4.1264,4.132,4.1344,4.1358,4.1415,4.1434,4.1506,4.1511,4.1559,4.1649,4.1686,4.1716,4.1797,4.1798,4.1813,4.1847,4.189,4.1898,4.1906,4.1936,4.1946,4.182,4.182,4.182,0,4.1149,4.1233,4.1257,4.1316,4.135,4.1359,4.1419,4.1453,4.1522,4.1545,4.1532,4.1646,4.1681,4.1767,4.1787,4.1811,4.1828,4.1806,4.1895,4.1903,4.1911,4.1939,4.195,4.1821,4.1821,4.1821,4.1821,0,4.1253,4.1311,4.1352,4.142,4.146,4.1518,4.1551,4.1587,4.1598,4.1623,4.1697,4.1739,4.1799,4.182,4.183,4.1908,4.1899,4.189,4.1866,4.1923,4.195,4.1961,4.1823,4.1823,4.1822,4.1822,0,0,4.1324,4.1406,4.1421,4.1452,4.1515,4.1559,4.1618,4.1679,4.171,4.1757,4.1807,4.1883,4.1876,4.1911,4.1925,4.1963,4.2025,4.1949,4.1951,4.1962,4.2113,4.212,4.2132,4.2026,4.2028,4.203,4.2109,0,4.1398,4.1505,4.1529,4.1621,4.1674,4.1684,4.1735,4.1778,4.1804,4.1852,4.188,4.1934,4.192,4.1941,4.1979,4.2009,4.2056,4.2004,4.2072,4.2074,4.206,4.2146,4.2153,4.2227,4.212,4.2122,4.2123,0,4.1499,4.155,4.1648,4.1704,4.1727,4.1773,4.1831,4.1877,4.1926,4.1942,4.1981,4.1992,4.2053,4.2026,4.211,4.2074,4.2104,4.2123,4.2126,4.2133,4.2102,4.2157,4.225,4.2262,4.214,4.2139,4.2137,0,4.1541,4.1635,4.1706,4.1732,4.1799,4.1831,4.1861,4.1908,4.1943,4.1993,4.2016,4.2072,4.2102,4.2145,4.217,4.2147,4.2252,4.2227,4.2267,4.2266,4.2289,4.2287,4.2389,4.2307,4.2307,4.2306,4.2306,0,4.1622,4.1681,4.1726,4.177,4.1836,4.1863,4.1928,4.1956,4.1999,4.2048,4.2058,4.2103,4.2133,4.2182,4.2202,4.2269,4.2283,4.2297,4.2301,4.2296,4.2295,4.2316,4.2312,4.2309,4.2309,4.2308,4.2308,0,4.1681,4.1713,4.1791,4.1849,4.1865,4.1912,4.196,4.2003,4.2028,4.209,4.2106,4.2146,4.2205,4.2234,4.2306,4.2319,4.2396,4.2397,4.238,4.2382,4.242,4.2416,4.254,4.2558,4.2463,4.2464,4.2464,0,4.1731,4.1777,4.184,4.1874,4.1905,4.1959,4.1995,4.2023,4.206,4.212,4.2155,4.2214,4.2264,4.2357,4.2392,4.2447,4.245,4.2489,4.2458,4.2452,4.2451,4.2449,4.2453,4.2495,4.2496,4.2497,4.2497,0,4.1815,4.1829,4.1882,4.1941,4.1984,4.2031,4.2077,4.2104,4.2139,4.218,4.2241,4.2279,4.2354,4.2413,4.2471,4.25,4.2505,4.2507,4.2519,4.2515,4.2503,4.2511,4.2395,4.2504,4.2503,4.2503,4.2502,4.2502,4.1872,4.1914,4.1965,4.2023,4.2061,4.2104,4.2147,4.2179,4.2231,4.2295,4.2308,4.2372,4.242,4.2499,4.253,4.2581,4.2572,4.2589,4.2594,4.2598,4.2601,4.2495,4.2591,4.2591,4.2591,4.2591,4.2591,0,4.1957,4.1991,4.2045,4.211,4.2156,4.2157,4.2209,4.2247,4.2304,4.2349,4.2398,4.2468,4.2525,4.2565,4.2623,4.2656,4.2659,4.267,4.2668,4.2675,4.2605,4.2589,4.2666,4.2666,4.2666,4.2666,4.2666,4.2666,4.2008,4.2079,4.2099,4.2189,4.2222,4.2287,4.2316,4.2356,4.2392,4.247,4.2519,4.2545,4.2588,4.2649,4.2702,4.2712,4.2733,4.2744,4.2754,4.2688,4.268,4.2672,4.2657,4.2748,4.2748,4.2821,4.2821,4.2822]}]]